カタログに戻る

H-2A R/B(2)

運用中GTO
NORAD 27518·ROCKET BODY·🇯🇵 Japan

打ち上げ Sep 10, 2002 から Tanegashima Space Center

Loading…

TLE

経年Source: Space-Track

元期: Sep 14, 2026, 21:10 UTC

1 27518U 02042D   26257.88209672 -.00000037  00000-0  61903-3 0  9998
2 27518  28.3406 173.0857 7104773 347.6267   1.5304  2.37878526207519

AllMySatでH-2A R/B(2)をリアルタイム追跡

Download on the App Store